Regional Weather Roundup
Issued by NWS

Home | Current Version | Previous Version | Graphics & Text | Print | Product List | Glossary On
Versions: 1 2 3 4 5 6 7 8 9 10 11 12 13 14 15 16 17 18 19 20 21 22 23 24 25 26 27 28 29 30 31 32 33 34 35 36 37 38 39 40 41 42 43 44 45 46 47 48 49 50
000
ASUS43 KOAX 181502
RWRNE

WEATHER ROUNDUP FOR NEBRASKA
NATIONAL WEATHER SERVICE OMAHA NE
900 AM CST WED JAN 18 2017

NOTES: SATELLITE DATA IS BEING USED TO AUGMENT CLOUD COVER ABOVE
       12000 FEET.
       "FAIR" INDICATES FEW OR NO CLOUDS BELOW 12,000 FEET WITH NO
       SIGNIFICANT WEATHER AND/OR OBSTRUCTIONS TO VISIBILITY.

  * THESE STATIONS DO NOT REPORT WEATHER SUCH AS RAIN...SNOW OR FOG.

NEZ001>004-019>022-054>056-181600-
NEBRASKA PANHANDLE

CITY           SKY/WX    TMP DP  RH WIND       PRES   REMARKS
SCOTTSBLUFF    CLOUDY    22  15  75 NW5       29.90F WCI  16
ALLIANCE       CLOUDY    23  16  74 W3        29.85F
CHADRON        CLOUDY    20  12  71 W12       29.85F WCI   8
KIMBALL        CLOUDY    24  18  80 W8        29.90F WCI  15
SIDNEY         CLOUDY    27  17  66 W9        29.90F WCI  18
$$

NEZ057>060-069>072-079>082-181600-
SOUTHWEST NEBRASKA

CITY           SKY/WX    TMP DP  RH WIND       PRES   REMARKS
NORTH PLATTE   CLOUDY    21  17  84 NW3       29.92F
IMPERIAL       CLOUDY    24  18  77 W6        29.93S WCI  17
LEXINGTON      CLOUDY    30  27  90 SW5       29.95S WCI  25
MCCOOK         CLOUDY    28  26  92 W6        29.95F WCI  22
OGALLALA       CLOUDY    22  20  91 W10       29.92F WCI  11
$$

NEZ005>010-023>029-035>040-094-181600-
NORTH CENTRAL NEBRASKA

CITY           SKY/WX    TMP DP  RH WIND       PRES   REMARKS
VALENTINE      CLOUDY    26  19  74 W8        29.85R WCI  18
AINSWORTH      CLOUDY    32  24  73 SW6       29.85R WCI  26
BROKEN BOW     CLOUDY    29  25  85 N5        29.91F WCI  24
O`NEILL        CLOUDY    31  27  83 S8        29.87F WCI  24
ORD            CLOUDY    25  21  85 CALM      29.93R
THEDFORD       PTCLDY    28  21  77 W3        29.89S
$$

NEZ041-046>049-061>064-073>077-083>087-181600-
SOUTH CENTRAL NEBRASKA

CITY           SKY/WX    TMP DP  RH WIND       PRES   REMARKS
GRAND ISLAND   CLEAR     34  31  88 S9        29.96F WCI  27
AURORA         CLEAR     34  31  88 S7        29.98S WCI  28
HASTINGS       CLEAR     31  28  89 S6        29.99F WCI  25
HEBRON         CLOUDY    32  30  90 CALM      30.03S
HOLDREGE       CLOUDY    31  28  90 SW5       29.97R WCI  26
KEARNEY *      CLOUDY    32  27  80 SW9       29.96S WCI  24
YORK           SUNNY     32  30  93 S7        30.00S WCI  26
$$

NEZ011>018-030>034-042>045-181600-
NORTHEAST NEBRASKA

CITY           SKY/WX    TMP DP  RH WIND       PRES   REMARKS
NORFOLK        CLOUDY    33  29  85 S9        29.94S WCI  25
ALBION         CLEAR     31  27  86 CALM      29.95S
BLAIR          CLOUDY    32  29  90 S3        30.01S
FREMONT        CLOUDY    33  31  92 CALM      30.00F
TEKAMAH        CLOUDY    32  29  88 S9        30.00F WCI  24
WAYNE          CLOUDY    33  29  87 SW5       29.94S WCI  28
$$

NEZ050>053-065>068-078-088>093-181600-
SOUTHEAST NEBRASKA

CITY           SKY/WX    TMP DP  RH WIND       PRES   REMARKS
LINCOLN        SUNNY     31  29  92 S7        30.04S WCI  24
OMAHA EPPLEY   CLOUDY    30  26  85 SE9       30.04S WCI  22
BEATRICE       CLOUDY    31  29  92 SE5       30.05S WCI  27
FALLS CITY     SUNNY     30  28  92 SE6       30.09S WCI  24
NEBRASKA CITY  SUNNY     30  29  96 S10       30.06R WCI  21
PLATTSMOUTH    CLOUDY    31  26  84 SE7       30.04S WCI  24
$$

NEZ044-045-051>053-067-181600-
OMAHA AREA

CITY           SKY/WX    TMP DP  RH WIND       PRES   REMARKS
OMAHA EPPLEY   CLOUDY    30  26  85 SE9       30.04S WCI  22
BLAIR          CLOUDY    32  29  90 S3        30.01S
FREMONT        CLOUDY    33  31  92 CALM      30.00F
MILLARD        CLOUDY    31  29  93 SE3       30.04S
OFFUTT AFB     CLOUDY    28  28 100 E5        30.04S WCI  23
PLATTSMOUTH    CLOUDY    31  26  84 SE7       30.04S WCI  24
WAHOO          FAIR      31  29  92 SE5       30.01F WCI  26
$$




USA.gov is the U.S. government's official web portal to all federal, state and local government web resources and services.